Location: Boitzum
(52.1496°N, 9.6943°E)
Time: 21:51:31
(UTC+00:00)

SeaSat 1 - Pass Details

Date: 13 January 2026
Orbit: 737 x 739 km, 108.0° (Epoch: 7 February)

Event Time Altitude Azimuth Distance (km) Brightness Sun altitude
Rises 05:53:27 0° 31° (NNE) 3,186 5.9 -13.3°
Reaches altitude 10° 05:55:43 10° 32° (NNE) 2,259 5.1 -13.0°
Maximum altitude 06:00:39 84° 121° (ESE) 751 2.5 -12.3°
Drops below altitude 10° 06:05:33 10° 210° (SSW) 2,245 4.8 -11.6°
Sets 06:07:48 0° 211° (SSW) 3,165 5.6 -11.2°
